SAS4612 EGPD-ENZV

Flight info

Callsign SAS4612
Flight time 0h 49m
Altitude 19000
Route ADN P600 LESNI/N0365F250 P600 BUDON DCT KLONN DCT KUNEM
Aircraft A320/M-SDE3FGHIJ1RWXYZ/ALB1

Departure

Time 2026-04-26 09:17
Airport Aberdeen International Airport (EGPD)

Arrival

Time 2026-04-26 10:07
Airport Stavanger Airport, Sola (ENZV)
Time Latitude Longitude Altitude Speed Heading
2026-04-26 08:55 57.19921 -2.20121 214 ft 0 kts 226°
2026-04-26 09:06 57.19923 -2.20118 206 ft 1 kts 226°
2026-04-26 09:07 57.19934 -2.20096 214 ft 3 kts 226°
2026-04-26 09:07 57.19946 -2.20072 214 ft 3 kts 239°
2026-04-26 09:07 57.19952 -2.20041 215 ft 3 kts 276°
2026-04-26 09:07 57.19947 -2.20008 210 ft 3 kts 306°
2026-04-26 09:08 57.19937 -2.19986 216 ft 1 kts 316°
2026-04-26 09:08 57.19933 -2.19980 216 ft 0 kts 316°
2026-04-26 09:11 57.19934 -2.19981 216 ft 1 kts 316°
2026-04-26 09:11 57.19952 -2.20013 210 ft 6 kts 315°
2026-04-26 09:11 57.19993 -2.20072 208 ft 9 kts 331°
2026-04-26 09:11 57.20063 -2.20122 210 ft 9 kts 339°
2026-04-26 09:12 57.20131 -2.20170 211 ft 12 kts 339°
2026-04-26 09:12 57.20211 -2.20229 204 ft 13 kts 338°
2026-04-26 09:12 57.20303 -2.20298 207 ft 14 kts 338°
2026-04-26 09:12 57.20391 -2.20366 207 ft 13 kts 337°
2026-04-26 09:13 57.20460 -2.20386 201 ft 9 kts 22°
2026-04-26 09:13 57.20519 -2.20353 210 ft 10 kts 352°
2026-04-26 09:13 57.20588 -2.20410 212 ft 12 kts 334°
2026-04-26 09:13 57.20662 -2.20465 211 ft 12 kts 339°
2026-04-26 09:14 57.20743 -2.20522 206 ft 10 kts 339°
2026-04-26 09:14 57.20812 -2.20570 210 ft 11 kts 339°
2026-04-26 09:14 57.20880 -2.20618 213 ft 10 kts 339°
2026-04-26 09:14 57.20944 -2.20662 205 ft 10 kts 340°
2026-04-26 09:15 57.20993 -2.20650 214 ft 7 kts 42°
2026-04-26 09:15 57.21005 -2.20607 206 ft 0 kts 67°
2026-04-26 09:15 57.21012 -2.20576 205 ft 5 kts 67°
2026-04-26 09:16 57.21033 -2.20482 203 ft 9 kts 68°
2026-04-26 09:16 57.21019 -2.20393 202 ft 7 kts 140°
2026-04-26 09:16 57.20989 -2.20367 210 ft 0 kts 157°
2026-04-26 09:17 57.20790 -2.20224 210 ft 67 kts 159°
2026-04-26 09:17 57.20164 -2.19763 213 ft 123 kts 158°
2026-04-26 09:17 57.19274 -2.19080 474 ft 143 kts 160°
2026-04-26 09:17 57.18373 -2.18340 1119 ft 142 kts 160°
2026-04-26 09:18 57.17574 -2.17234 1703 ft 156 kts 128°
2026-04-26 09:18 57.17369 -2.15090 1959 ft 194 kts 83°
2026-04-26 09:18 57.18190 -2.12905 2208 ft 229 kts 33°
2026-04-26 09:18 57.19780 -2.12158 2599 ft 251 kts 352°
2026-04-26 09:19 57.21446 -2.13307 3225 ft 261 kts 324°
2026-04-26 09:19 57.22906 -2.15287 4231 ft 261 kts 317°
2026-04-26 09:19 57.24383 -2.17268 5208 ft 267 kts 331°
2026-04-26 09:19 57.26203 -2.18089 6163 ft 275 kts 358°
2026-04-26 09:20 57.28068 -2.17284 7117 ft 281 kts 25°
2026-04-26 09:20 57.29567 -2.14917 7922 ft 292 kts 53°
2026-04-26 09:20 57.30617 -2.11664 8767 ft 297 kts 60°
2026-04-26 09:20 57.31628 -2.08329 9662 ft 300 kts 60°
2026-04-26 09:21 57.32656 -2.04926 10452 ft 306 kts 60°
2026-04-26 09:21 57.33734 -2.01367 10766 ft 328 kts 60°
2026-04-26 09:21 57.34883 -1.97589 11206 ft 343 kts 60°
2026-04-26 09:21 57.36067 -1.93702 11864 ft 349 kts 60°
2026-04-26 09:22 57.37267 -1.89765 12602 ft 353 kts 59°
2026-04-26 09:22 57.38488 -1.85769 13299 ft 358 kts 59°
2026-04-26 09:22 57.39719 -1.81734 14069 ft 361 kts 59°
2026-04-26 09:22 57.40960 -1.77647 14719 ft 365 kts 59°
2026-04-26 09:23 57.42208 -1.73525 15398 ft 368 kts 59°
2026-04-26 09:23 57.43465 -1.69365 16035 ft 372 kts 59°
2026-04-26 09:23 57.44733 -1.65149 16653 ft 375 kts 60°
2026-04-26 09:23 57.46010 -1.60896 17280 ft 379 kts 60°
2026-04-26 09:24 57.47304 -1.56592 17893 ft 384 kts 60°
2026-04-26 09:24 57.48555 -1.52184 18510 ft 388 kts 65°
2026-04-26 09:24 57.49627 -1.47547 19071 ft 392 kts 66°
2026-04-26 09:24 57.50702 -1.42870 19657 ft 395 kts 66°
2026-04-26 09:25 57.51784 -1.38144 20145 ft 399 kts 66°
2026-04-26 09:25 57.52869 -1.33391 20298 ft 399 kts 66°
2026-04-26 09:25 57.53939 -1.28698 20321 ft 390 kts 66°
2026-04-26 09:25 57.54995 -1.24070 20323 ft 388 kts 66°
2026-04-26 09:26 57.56046 -1.19446 20326 ft 387 kts 66°
2026-04-26 09:26 57.57093 -1.14830 20325 ft 387 kts 66°
2026-04-26 09:26 57.58136 -1.10218 20326 ft 386 kts 66°
2026-04-26 09:26 57.59178 -1.05599 20326 ft 386 kts 66°
2026-04-26 09:27 57.60218 -1.00987 20329 ft 386 kts 66°
2026-04-26 09:27 57.61259 -0.96367 20328 ft 386 kts 66°
2026-04-26 09:27 57.62299 -0.91747 20335 ft 386 kts 66°
2026-04-26 09:27 57.63337 -0.87121 20337 ft 386 kts 66°
2026-04-26 09:28 57.64373 -0.82492 20340 ft 387 kts 66°
2026-04-26 09:28 57.65406 -0.77860 20354 ft 387 kts 66°
2026-04-26 09:28 57.66438 -0.73215 20352 ft 388 kts 66°
2026-04-26 09:28 57.67470 -0.68559 20355 ft 388 kts 66°
2026-04-26 09:29 57.68499 -0.63901 20355 ft 388 kts 66°
2026-04-26 09:29 57.69531 -0.59234 20356 ft 388 kts 66°
2026-04-26 09:29 57.70564 -0.54565 20357 ft 389 kts 66°
2026-04-26 09:29 57.71593 -0.49892 20357 ft 389 kts 66°
2026-04-26 09:30 57.72622 -0.45212 20364 ft 389 kts 66°
2026-04-26 09:30 57.73648 -0.40532 20366 ft 389 kts 66°
2026-04-26 09:30 57.74672 -0.35845 20366 ft 389 kts 66°
2026-04-26 09:30 57.75690 -0.31153 20368 ft 389 kts 66°
2026-04-26 09:31 57.76707 -0.26454 20368 ft 389 kts 66°
2026-04-26 09:31 57.77722 -0.21758 20369 ft 389 kts 66°
2026-04-26 09:31 57.78739 -0.17063 20368 ft 389 kts 66°
2026-04-26 09:31 57.79757 -0.12364 20368 ft 389 kts 66°
2026-04-26 09:32 57.80775 -0.07656 20369 ft 389 kts 66°
2026-04-26 09:32 57.81789 -0.02954 20365 ft 389 kts 67°
2026-04-26 09:32 57.82800 0.01750 20374 ft 389 kts 66°
2026-04-26 09:32 57.83808 0.06467 20374 ft 389 kts 66°
2026-04-26 09:33 57.84813 0.11179 20376 ft 389 kts 66°
2026-04-26 09:33 57.85815 0.15892 20377 ft 389 kts 66°
2026-04-26 09:33 57.86815 0.20607 20377 ft 389 kts 66°
2026-04-26 09:33 57.87815 0.25327 20379 ft 389 kts 66°
2026-04-26 09:34 57.88815 0.30046 20379 ft 389 kts 66°
2026-04-26 09:34 57.89815 0.34770 20379 ft 389 kts 66°
2026-04-26 09:34 57.90811 0.39491 20379 ft 389 kts 66°
2026-04-26 09:34 57.91804 0.44222 20379 ft 389 kts 66°
2026-04-26 09:35 57.92797 0.48953 20396 ft 389 kts 66°
2026-04-26 09:35 57.93788 0.53685 20391 ft 389 kts 66°
2026-04-26 09:35 57.94775 0.58424 20387 ft 389 kts 67°
2026-04-26 09:35 57.95762 0.63169 20390 ft 389 kts 66°
2026-04-26 09:36 57.96750 0.67920 20387 ft 389 kts 66°
2026-04-26 09:36 57.97735 0.72662 20385 ft 389 kts 66°
2026-04-26 09:36 57.98719 0.77413 20392 ft 389 kts 66°
2026-04-26 09:36 57.99699 0.82170 20391 ft 389 kts 66°
2026-04-26 09:37 58.00676 0.86927 20389 ft 389 kts 66°
2026-04-26 09:37 58.01650 0.91681 20389 ft 389 kts 66°
2026-04-26 09:37 58.02625 0.96439 20391 ft 389 kts 66°
2026-04-26 09:37 58.03598 1.01207 20387 ft 389 kts 66°
2026-04-26 09:38 58.04566 1.05970 20386 ft 389 kts 67°
2026-04-26 09:38 58.05534 1.10739 20390 ft 389 kts 67°
2026-04-26 09:38 58.06501 1.15503 20390 ft 389 kts 67°
2026-04-26 09:38 58.07468 1.20272 20389 ft 389 kts 67°
2026-04-26 09:39 58.08434 1.25048 20390 ft 389 kts 66°
2026-04-26 09:39 58.09398 1.29823 20390 ft 389 kts 66°
2026-04-26 09:39 58.10359 1.34592 20390 ft 389 kts 66°
2026-04-26 09:39 58.11319 1.39369 20386 ft 388 kts 66°
2026-04-26 09:40 58.12274 1.44147 20387 ft 388 kts 67°
2026-04-26 09:40 58.13227 1.48927 20389 ft 388 kts 67°
2026-04-26 09:40 58.14180 1.53709 20387 ft 388 kts 67°
2026-04-26 09:40 58.15130 1.58494 20384 ft 388 kts 67°
2026-04-26 09:41 58.16078 1.63277 20384 ft 388 kts 67°
2026-04-26 09:41 58.17023 1.68059 20385 ft 388 kts 67°
2026-04-26 09:41 58.17965 1.72855 20383 ft 388 kts 67°
2026-04-26 09:41 58.18905 1.77650 20405 ft 388 kts 67°
2026-04-26 09:42 58.19844 1.82444 20402 ft 388 kts 67°
2026-04-26 09:42 58.20785 1.87252 20406 ft 389 kts 67°
2026-04-26 09:42 58.21723 1.92058 20398 ft 389 kts 67°
2026-04-26 09:42 58.22662 1.96863 20387 ft 389 kts 67°
2026-04-26 09:43 58.23601 2.01682 20391 ft 389 kts 67°
2026-04-26 09:43 58.24538 2.06495 20382 ft 389 kts 67°
2026-04-26 09:43 58.25470 2.11312 20382 ft 389 kts 67°
2026-04-26 09:43 58.26397 2.16133 20380 ft 389 kts 67°
2026-04-26 09:44 58.27325 2.20965 20379 ft 389 kts 67°
2026-04-26 09:44 58.28248 2.25792 20386 ft 389 kts 67°
2026-04-26 09:44 58.29169 2.30623 20386 ft 389 kts 68°
2026-04-26 09:44 58.30088 2.35457 20384 ft 389 kts 68°
2026-04-26 09:45 58.31009 2.40299 20385 ft 389 kts 68°
2026-04-26 09:45 58.31930 2.45138 20385 ft 389 kts 68°
2026-04-26 09:45 58.32847 2.49987 20394 ft 389 kts 68°
2026-04-26 09:45 58.33761 2.54834 20394 ft 389 kts 68°
2026-04-26 09:46 58.34377 2.58111 20389 ft 389 kts 68°
2026-04-26 09:46 58.35289 2.62964 20390 ft 389 kts 68°
2026-04-26 09:46 58.36201 2.67814 20388 ft 389 kts 68°
2026-04-26 09:46 58.37109 2.72663 20387 ft 389 kts 68°
2026-04-26 09:47 58.38013 2.77520 20392 ft 389 kts 68°
2026-04-26 09:47 58.38933 2.82354 20392 ft 388 kts 64°
2026-04-26 09:47 58.40112 2.86951 20393 ft 386 kts 59°
2026-04-26 09:47 58.41335 2.91435 20392 ft 386 kts 59°
2026-04-26 09:48 58.42590 2.96040 20392 ft 386 kts 59°
2026-04-26 09:48 58.43826 3.00589 20400 ft 386 kts 59°
2026-04-26 09:48 58.45057 3.05146 20414 ft 386 kts 59°
2026-04-26 09:48 58.46286 3.09710 20410 ft 386 kts 59°
2026-04-26 09:49 58.47513 3.14269 20416 ft 386 kts 59°
2026-04-26 09:49 58.48740 3.18834 20413 ft 386 kts 59°
2026-04-26 09:49 58.49966 3.23404 20410 ft 386 kts 59°
2026-04-26 09:49 58.51187 3.27972 20406 ft 385 kts 59°
2026-04-26 09:50 58.52404 3.32538 20403 ft 385 kts 59°
2026-04-26 09:50 58.53617 3.37102 20402 ft 385 kts 59°
2026-04-26 09:50 58.54831 3.41671 20400 ft 385 kts 59°
2026-04-26 09:50 58.56027 3.46183 20399 ft 385 kts 59°
2026-04-26 09:51 58.57237 3.50756 20393 ft 385 kts 59°
2026-04-26 09:51 58.58460 3.55390 20393 ft 385 kts 59°
2026-04-26 09:51 58.59651 3.59909 20392 ft 385 kts 60°
2026-04-26 09:51 58.60871 3.64551 20392 ft 385 kts 60°
2026-04-26 09:52 58.62072 3.69135 20392 ft 385 kts 60°
2026-04-26 09:52 58.64476 3.78306 20398 ft 385 kts 59°
2026-04-26 09:52 58.65685 3.82915 20377 ft 391 kts 59°
2026-04-26 09:53 58.66904 3.87581 20334 ft 387 kts 60°
2026-04-26 09:53 58.68091 3.92167 19985 ft 380 kts 60°
2026-04-26 09:53 58.69255 3.96692 19478 ft 374 kts 60°
2026-04-26 09:53 58.70103 4.01408 18715 ft 375 kts 77°
2026-04-26 09:54 58.70492 4.06353 17829 ft 373 kts 79°
2026-04-26 09:54 58.70848 4.11265 16991 ft 369 kts 79°
2026-04-26 09:54 58.71190 4.16123 16191 ft 364 kts 79°
2026-04-26 09:54 58.71519 4.20926 15413 ft 360 kts 79°
2026-04-26 09:55 58.71846 4.25731 14910 ft 361 kts 79°
2026-04-26 09:55 58.72169 4.30495 14530 ft 357 kts 79°
2026-04-26 09:55 58.72488 4.35221 14128 ft 355 kts 79°
2026-04-26 09:55 58.72807 4.39911 13689 ft 352 kts 79°
2026-04-26 09:56 58.73126 4.44570 13280 ft 349 kts 79°
2026-04-26 09:56 58.73438 4.49153 12621 ft 343 kts 79°
2026-04-26 09:56 58.73741 4.53669 11882 ft 338 kts 79°
2026-04-26 09:56 58.74038 4.58121 11173 ft 332 kts 79°
2026-04-26 09:57 58.74330 4.62504 10494 ft 327 kts 79°
2026-04-26 09:57 58.74615 4.66809 9835 ft 321 kts 79°
2026-04-26 09:57 58.74886 4.70951 9497 ft 304 kts 79°
2026-04-26 09:57 58.75146 4.74938 9024 ft 295 kts 79°
2026-04-26 09:58 58.75396 4.78764 8672 ft 282 kts 80°
2026-04-26 09:58 58.75636 4.82467 8339 ft 278 kts 80°
2026-04-26 09:58 58.75877 4.86157 7987 ft 278 kts 80°
2026-04-26 09:58 58.76116 4.89850 7642 ft 278 kts 80°
2026-04-26 09:59 58.76352 4.93549 7295 ft 279 kts 81°
2026-04-26 09:59 58.76588 4.97261 6948 ft 279 kts 80°
2026-04-26 09:59 58.76822 5.00948 6585 ft 274 kts 81°
2026-04-26 09:59 58.77046 5.04512 6241 ft 262 kts 81°
2026-04-26 10:00 58.77260 5.07931 5912 ft 252 kts 81°
2026-04-26 10:00 58.77472 5.11293 5597 ft 254 kts 79°
2026-04-26 10:00 58.77686 5.14672 5278 ft 255 kts 81°
2026-04-26 10:00 58.77899 5.18062 4948 ft 254 kts 81°
2026-04-26 10:01 58.78109 5.21445 4606 ft 254 kts 80°
2026-04-26 10:01 58.78315 5.24811 4301 ft 253 kts 81°
2026-04-26 10:01 58.78519 5.28168 3978 ft 251 kts 81°
2026-04-26 10:01 58.78721 5.31507 3683 ft 248 kts 79°
2026-04-26 10:02 58.78915 5.34748 3552 ft 239 kts 81°
2026-04-26 10:02 58.79099 5.37871 3398 ft 231 kts 81°
2026-04-26 10:02 58.79277 5.40909 3211 ft 226 kts 82°
2026-04-26 10:02 58.79255 5.43920 2976 ft 225 kts 90°
2026-04-26 10:03 58.79165 5.47010 2338 ft 237 kts 89°
2026-04-26 10:03 58.79075 5.50168 1939 ft 231 kts 90°
2026-04-26 10:03 58.78987 5.53150 1782 ft 214 kts 89°
2026-04-26 10:03 58.78934 5.55882 1710 ft 193 kts 80°
2026-04-26 10:04 58.79186 5.58216 1602 ft 163 kts 65°
2026-04-26 10:04 58.79662 5.60011 1534 ft 141 kts 50°
2026-04-26 10:04 58.80266 5.61387 1516 ft 130 kts 38°
2026-04-26 10:04 58.80979 5.62440 1319 ft 127 kts 27°
2026-04-26 10:05 58.81763 5.63219 1139 ft 125 kts 17°
2026-04-26 10:05 58.82595 5.63708 887 ft 124 kts
2026-04-26 10:05 58.83453 5.63878 766 ft 125 kts
2026-04-26 10:05 58.84337 5.63879 639 ft 127 kts 358°
2026-04-26 10:06 58.85225 5.63860 475 ft 129 kts 359°
2026-04-26 10:06 58.86118 5.63840 303 ft 128 kts
2026-04-26 10:06 58.87000 5.63801 107 ft 126 kts 359°
2026-04-26 10:06 58.87816 5.63773 36 ft 104 kts 359°
2026-04-26 10:07 58.88390 5.63756 30 ft 46 kts
2026-04-26 10:07 58.88635 5.63763 29 ft 18 kts
2026-04-26 10:07 58.88706 5.63642 28 ft 16 kts 274°
2026-04-26 10:07 58.88705 5.63535 31 ft 4 kts 269°
2026-04-26 10:08 58.88701 5.63467 31 ft 7 kts 255°
2026-04-26 10:08 58.88652 5.63422 32 ft 9 kts 185°
2026-04-26 10:08 58.88576 5.63420 31 ft 13 kts 179°
2026-04-26 10:08 58.88474 5.63422 31 ft 16 kts 179°
2026-04-26 10:09 58.88362 5.63427 31 ft 16 kts 178°
2026-04-26 10:09 58.88266 5.63432 29 ft 15 kts 178°
2026-04-26 10:09 58.88171 5.63434 30 ft 14 kts 179°
2026-04-26 10:09 58.88075 5.63436 30 ft 12 kts 180°
2026-04-26 10:10 58.87992 5.63411 31 ft 12 kts 201°
2026-04-26 10:10 58.87948 5.63316 30 ft 12 kts 264°
2026-04-26 10:10 58.87967 5.63177 28 ft 10 kts 289°
2026-04-26 10:10 58.87988 5.63052 27 ft 9 kts 287°
2026-04-26 10:11 58.87987 5.62917 27 ft 11 kts 263°
2026-04-26 10:11 58.87993 5.62785 27 ft 9 kts 285°
2026-04-26 10:11 58.88008 5.62732 26 ft 5 kts 322°
2026-04-26 10:11 58.88047 5.62740 25 ft 5 kts 17°
2026-04-26 10:12 58.88066 5.62750 25 ft 2 kts 15°
2026-04-26 10:12 58.88068 5.62750 25 ft 0 kts 15°
2026-04-26 10:12 58.88067 5.62759 27 ft 0 kts 15°